TimeMST,TemperatureF,Dew PointF,Humidity,Sea Level PressureIn,VisibilityMPH,Wind Direction,Wind SpeedMPH,Gust SpeedMPH,PrecipitationIn,Events,Conditions,WindDirDegrees,DateUTC
12:16 AM,30.9,22.1,70,30.18,10.0,ESE,11.5,-,N/A,,Clear,120,2013-02-02 07:16:00
12:36 AM,32.2,21.7,65,30.18,10.0,ESE,8.1,-,N/A,,Clear,120,2013-02-02 07:36:00
12:56 AM,30.6,21.4,69,30.18,10.0,ESE,8.1,-,N/A,,Clear,120,2013-02-02 07:56:00
1:16 AM,32.0,21.6,65,30.19,10.0,SE,5.8,-,N/A,,Clear,130,2013-02-02 08:16:00
1:36 AM,31.1,21.7,68,30.19,10.0,SE,12.7,-,N/A,,Clear,140,2013-02-02 08:36:00
1:56 AM,32.5,21.2,63,30.20,10.0,SE,11.5,-,N/A,,Clear,130,2013-02-02 08:56:00
2:16 AM,32.0,20.8,63,30.20,10.0,SSE,8.1,-,N/A,,Clear,150,2013-02-02 09:16:00
2:36 AM,29.1,20.3,70,30.22,10.0,Calm,Calm,-,N/A,,Clear,0,2013-02-02 09:36:00
2:56 AM,31.6,20.3,63,30.22,10.0,Calm,Calm,-,N/A,,Clear,0,2013-02-02 09:56:00
3:16 AM,29.8,20.1,67,30.22,10.0,SW,3.5,-,N/A,,Clear,220,2013-02-02 10:16:00
3:36 AM,23.7,18.0,79,30.22,10.0,Calm,Calm,-,N/A,,Clear,0,2013-02-02 10:36:00
3:56 AM,21.0,17.6,87,30.22,10.0,Calm,Calm,-,N/A,,Clear,0,2013-02-02 10:56:00
4:16 AM,21.6,18.0,86,30.22,10.0,Calm,Calm,-,N/A,,Clear,0,2013-02-02 11:16:00
4:36 AM,20.8,18.0,89,30.23,10.0,Calm,Calm,-,N/A,,Clear,0,2013-02-02 11:36:00
4:56 AM,20.1,17.2,89,30.23,10.0,Calm,Calm,-,N/A,,Clear,0,2013-02-02 11:56:00
5:16 AM,17.8,15.6,91,30.23,10.0,Calm,Calm,-,N/A,,Clear,0,2013-02-02 12:16:00
5:36 AM,18.7,16.3,91,30.24,10.0,SSW,3.5,-,N/A,,Clear,210,2013-02-02 12:36:00
5:56 AM,18.5,16.7,93,30.24,10.0,SSW,3.5,-,N/A,,Clear,210,2013-02-02 12:56:00
6:16 AM,18.3,16.5,93,30.24,10.0,Calm,Calm,-,N/A,,Clear,0,2013-02-02 13:16:00
6:36 AM,18.0,15.8,91,30.24,10.0,Calm,Calm,-,N/A,,Clear,0,2013-02-02 13:36:00
6:56 AM,18.1,16.2,92,30.24,10.0,Calm,Calm,-,N/A,,Clear,0,2013-02-02 13:56:00
7:16 AM,17.4,15.6,93,30.24,10.0,Calm,Calm,-,N/A,,Clear,0,2013-02-02 14:16:00
7:36 AM,18.0,16.7,95,30.26,10.0,South,5.8,-,N/A,,Clear,190,2013-02-02 14:36:00
7:56 AM,21.0,18.9,91,30.26,10.0,Calm,Calm,-,N/A,,Clear,0,2013-02-02 14:56:00
8:16 AM,24.3,21.4,89,30.26,10.0,Calm,Calm,-,N/A,,Clear,0,2013-02-02 15:16:00
8:36 AM,29.3,24.3,81,30.26,10.0,Calm,Calm,-,N/A,,Clear,0,2013-02-02 15:36:00
8:56 AM,31.6,24.3,74,30.26,10.0,SSE,3.5,-,N/A,,Clear,160,2013-02-02 15:56:00
9:16 AM,34.0,24.4,68,30.26,10.0,Calm,Calm,-,N/A,,Clear,0,2013-02-02 16:16:00
9:36 AM,35.2,23.9,63,30.25,10.0,Calm,Calm,-,N/A,,Clear,0,2013-02-02 16:36:00
9:56 AM,37.6,23.4,57,30.25,10.0,Calm,Calm,-,N/A,,Clear,0,2013-02-02 16:56:00
10:16 AM,39.2,22.1,50,30.24,10.0,Calm,Calm,-,N/A,,Clear,0,2013-02-02 17:16:00
10:36 AM,41.5,21.4,45,30.24,10.0,Calm,Calm,-,N/A,,Clear,0,2013-02-02 17:36:00
10:56 AM,43.3,19.6,39,30.23,10.0,Calm,Calm,-,N/A,,Clear,0,2013-02-02 17:56:00
11:16 AM,44.8,19.0,36,30.23,10.0,Calm,Calm,-,N/A,,Clear,0,2013-02-02 18:16:00
11:36 AM,48.2,18.7,31,30.21,10.0,Calm,Calm,-,N/A,,Clear,0,2013-02-02 18:36:00
11:56 AM,50.4,17.8,28,30.20,10.0,ENE,4.6,-,N/A,,Clear,60,2013-02-02 18:56:00
12:16 PM,53.1,14.2,21,30.19,10.0,Calm,Calm,-,N/A,,Clear,0,2013-02-02 19:16:00
12:36 PM,56.3,11.3,17,30.18,10.0,Calm,Calm,-,N/A,,Clear,0,2013-02-02 19:36:00
12:56 PM,59.2,6.4,12,30.18,10.0,NW,5.8,-,N/A,,Clear,320,2013-02-02 19:56:00
1:16 PM,58.1,12.0,16,30.18,10.0,North,5.8,-,N/A,,Clear,350,2013-02-02 20:16:00
1:36 PM,59.7,6.3,12,30.18,10.0,West,6.9,-,N/A,,Clear,280,2013-02-02 20:36:00
1:56 PM,59.4,7.7,13,30.17,10.0,North,6.9,-,N/A,,Clear,10,2013-02-02 20:56:00
2:16 PM,58.5,13.8,17,30.18,10.0,North,6.9,-,N/A,,Clear,360,2013-02-02 21:16:00
2:36 PM,58.3,11.7,16,30.18,10.0,NNE,6.9,-,N/A,,Clear,20,2013-02-02 21:36:00
2:56 PM,58.6,10.4,15,30.19,10.0,NNE,5.8,-,N/A,,Clear,30,2013-02-02 21:56:00
3:16 PM,57.6,10.6,16,30.19,10.0,East,8.1,-,N/A,,Clear,80,2013-02-02 22:16:00
3:36 PM,56.3,12.9,18,30.20,10.0,East,10.4,-,N/A,,Clear,80,2013-02-02 22:36:00
3:56 PM,55.2,12.9,19,30.20,10.0,ENE,8.1,-,N/A,,Clear,70,2013-02-02 22:56:00
4:16 PM,53.4,13.8,21,30.21,10.0,East,5.8,-,N/A,,Clear,80,2013-02-02 23:16:00
4:36 PM,52.2,14.9,23,30.22,10.0,East,10.4,16.1,N/A,,Clear,90,2013-02-02 23:36:00
4:56 PM,50.0,14.9,25,30.22,10.0,East,8.1,-,N/A,,Clear,100,2013-02-02 23:56:00
5:16 PM,45.0,19.0,36,30.23,10.0,ESE,9.2,-,N/A,,Clear,110,2013-02-03 00:16:00
5:36 PM,42.3,18.0,38,30.23,10.0,SE,5.8,-,N/A,,Clear,130,2013-02-03 00:36:00
5:56 PM,41.5,17.6,38,30.25,10.0,SSW,3.5,-,N/A,,Clear,210,2013-02-03 00:56:00
6:16 PM,38.3,19.0,46,30.26,10.0,SSW,4.6,-,N/A,,Clear,200,2013-02-03 01:16:00
6:36 PM,38.5,18.1,44,30.27,10.0,SSW,6.9,-,N/A,,Clear,200,2013-02-03 01:36:00
6:56 PM,36.1,18.5,49,30.29,10.0,South,6.9,-,N/A,,Clear,170,2013-02-03 01:56:00
7:16 PM,40.5,15.4,36,30.29,10.0,South,4.6,-,N/A,,Clear,190,2013-02-03 02:16:00
7:36 PM,34.2,17.2,50,30.30,10.0,SSE,4.6,-,N/A,,Clear,160,2013-02-03 02:36:00
7:56 PM,36.1,16.7,45,30.30,10.0,South,8.1,-,N/A,,Clear,170,2013-02-03 02:56:00
8:16 PM,36.1,16.5,45,30.30,10.0,SSE,6.9,-,N/A,,Clear,160,2013-02-03 03:16:00
8:36 PM,34.9,16.2,46,30.30,10.0,SSE,3.5,-,N/A,,Clear,160,2013-02-03 03:36:00
8:56 PM,32.0,17.6,55,30.29,10.0,SSW,3.5,-,N/A,,Clear,210,2013-02-03 03:56:00
9:16 PM,32.0,17.6,55,30.29,10.0,SW,3.5,-,N/A,,Clear,220,2013-02-03 04:16:00
9:36 PM,31.1,17.8,58,30.29,10.0,SW,3.5,-,N/A,,Clear,220,2013-02-03 04:36:00
9:56 PM,31.6,17.6,56,30.28,10.0,Calm,Calm,-,N/A,,Clear,0,2013-02-03 04:56:00
10:16 PM,32.0,17.2,55,30.27,10.0,Calm,Calm,-,N/A,,Clear,0,2013-02-03 05:16:00
10:36 PM,27.1,17.8,68,30.26,10.0,Calm,Calm,-,N/A,,Clear,0,2013-02-03 05:36:00
10:56 PM,27.1,18.7,70,30.26,10.0,Calm,Calm,-,N/A,,Clear,0,2013-02-03 05:56:00
11:16 PM,24.6,18.1,76,30.26,10.0,Calm,Calm,-,N/A,,Clear,0,2013-02-03 06:16:00
11:36 PM,26.4,18.3,71,30.24,10.0,SW,4.6,-,N/A,,Clear,220,2013-02-03 06:36:00
11:56 PM,24.1,17.8,77,30.24,10.0,SSW,3.5,-,N/A,,Clear,210,2013-02-03 06:56:00